Wind_Speed
6 7 8 10 11 11 10 9 8 6 5 4 4 4 5 6 6 7 8 9 10 11 12 13 13 13 13 14 14 14 13 13 12 11 10 10 9 9 10 10 11 11 11
6 7 8 9 10 10 9 8 7 6 6 5 5 5 5 6 7 8 9 9 10 11 12 13 14 14 14 14 14 13 13 12 12 11 11 10 10 10 11 11 12 13 13
7 7 7 8 9 9 8 7 6 5 5 4 4 5 5 6 6 7 7 8 9 9 10 11 12 13 13 13 13 13 12 12 11 11 11 11 11 12 13 13 13 14 14
7 6 6 7 7 7 6 6 5 4 3 3 3 4 4 4 4 5 5 6 7 8 8 9 10 10 11 11 11 11 11 11 11 11 11 12 12 13 14 15 15 15 16
6 5 6 6 5 5 5 5 5 4 3 2 2 2 2 2 3 3 4 4 5 6 7 7 8 8 9 9 10 10 10 10 10 11 11 12 12 13 14 15 15 16 16
5 5 5 4 4 5 5 5 5 4 4 3 2 1 0 1 1 2 3 3 5 6 6 7 7 7 8 9 10 10 11 11 11 11 11 12 12 13 13 14 15 16 16
4 4 4 3 4 4 5 5 5 6 5 4 3 3 2 2 2 2 3 3 4 6 7 8 8 8 9 9 10 11 12 12 12 12 12 13 13 13 13 13 13 14 15
4 4 4 4 5 6 6 7 7 7 6 6 5 4 3 2 2 2 2 3 5 6 8 9 9 9 9 10 11 12 13 13 13 14 14 14 14 14 14 14 13 14 15
4 5 6 6 7 8 9 9 9 8 8 7 6 5 4 3 2 1 2 3 5 7 9 10 10 10 10 10 11 12 13 13 14 14 15 15 15 15 14 14 14 15 15
5 6 7 8 9 10 10 10 10 9 8 7 6 5 3 2 0 1 2 4 6 8 9 10 11 11 11 11 11 12 13 13 14 14 14 15 15 15 16 15 15 15 16
5 6 7 9 10 10 10 10 10 9 8 7 6 5 3 1 1 2 3 5 7 8 10 11 12 12 12 12 12 13 13 13 14 14 15 15 16 16 16 16 16 16 17
6 6 7 8 9 10 10 10 9 9 8 7 6 5 3 2 2 3 4 5 7 9 10 12 13 13 12 12 13 13 14 14 14 14 15 16 16 16 17 18 18 18 19
6 6 7 8 8 9 9 9 9 9 8 7 6 5 4 4 4 4 5 6 8 9 11 13 13 13 12 12 12 13 14 15 15 15 15 16 17 18 19 19 20 20 21
6 7 7 8 8 8 9 9 9 9 8 7 7 6 6 6 5 5 6 7 8 9 11 12 13 13 12 11 11 12 14 16 16 16 17 17 18 19 20 21 22 22 24
7 8 8 9 9 9 9 9 9 9 9 8 8 8 7 7 7 7 8 9 9 10 11 12 12 13 13 12 11 12 13 15 16 17 18 19 20 21 22 23 24 25 26
9 10 10 11 11 10 10 10 10 10 9 9 9 8 8 8 8 9 9 10 11 12 13 12 13 14 14 13 11 11 12 13 15 17 19 20 22 23 24 25 26 27 28
12 12 12 13 12 12 11 11 11 11 10 10 10 9 9 9 9 10 11 12 12 13 13 13 13 14 14 13 12 12 13 14 16 17 19 21 23 24 25 27 28 29 30
14 14 14 14 13 14 13 13 12 12 11 11 11 11 11 12 12 12 13 14 14 15 15 15 15 15 15 14 14 13 13 15 16 18 20 22 23 24 26 27 28 29 31
16 17 15 16 16 16 16 15 14 14 14 14 14 14 15 15 16 16 17 17 17 17 17 17 17 17 17 16 15 15 15 16 16 18 19 20 22 23 25 26 28 29 30
17 19 19 18 18 18 18 18 17 17 17 17 17 18 19 19 19 20 20 21 21 21 20 19 20 20 19 19 18 18 18 18 18 19 20 21 23 24 26 27 28 29 31
17 16 16 18 19 20 20 19 19 20 21 21 22 22 22 23 23 23 24 24 25 24 23 23 23 22 21 21 21 21 21 21 22 22 23 24 25 27 28 29 31 32 35
16 15 14 15 18 21 21 21 23 23 23 23 23 24 25 25 26 27 28 28 28 27 26 25 25 24 24 23 24 25 25 25 26 26 28 29 30 31 32 34 35 37 39
17 16 16 16 18 21 22 23 24 25 26 25 24 25 26 27 28 29 29 28 28 28 27 27 28 25 25 25 25 27 28 29 30 31 32 34 35 36 37 38 40 42 44
19 19 19 19 19 21 23 25 26 26 26 27 28 27 28 29 30 30 30 30 29 29 29 28 27 27 26 26 28 29 30 32 33 35 36 38 39 41 41 42 44 46 48
23 23 23 23 24 25 27 29 29 29 30 31 30 30 29 29 29 31 32 32 30 29 29 29 28 28 28 29 30 31 32 34 36 38 39 41 42 43 45 46 49 51 53
26 26 25 26 26 28 30 31 32 32 33 33 33 32 31 30 30 32 33 31 30 30 30 31 31 30 30 31 32 33 34 36 38 40 41 43 45 46 48 50 52 54 56
Wind_Direction
266 265 268 269 268 267 268 267 264 259 255 253 261 278 291 301 308 313 317 316 316 315 313 311 309 307 306 305 304 304 304 304 303 301 297 289 282 276 271 267 265 263 262
266 266 268 267 263 263 264 262 261 263 263 261 264 269 278 288 296 301 305 307 309 309 308 306 305 304 304 303 304 305 305 303 302 300 297 292 285 280 276 271 269 269 268
265 266 266 264 261 258 256 253 255 257 258 259 261 265 273 283 293 301 307 309 310 310 309 307 307 306 306 306 306 306 305 303 301 299 295 291 285 280 277 274 271 271 272
264 263 262 258 255 251 245 242 239 235 240 250 260 271 281 291 301 310 315 313 313 312 311 311 310 310 310 310 308 307 306 303 301 299 295 290 286 284 281 276 273 272 273
260 255 252 248 243 235 228 221 210 204 207 222 244 273 294 309 319 324 325 320 316 313 311 311 312 312 313 312 309 308 306 303 301 298 294 291 290 290 288 281 275 273 274
251 244 239 232 222 214 205 192 183 178 173 169 166 168 76 14 8 2 353 338 328 321 318 316 314 312 311 309 307 306 304 301 299 296 293 292 291 293 294 288 281 276 275
236 230 214 197 189 181 170 163 157 151 149 150 148 141 119 83 58 40 15 353 337 328 324 321 317 313 309 306 302 301 301 299 297 294 291 290 291 291 292 295 288 280 278
209 200 180 166 157 150 143 141 140 141 145 147 145 138 124 102 76 46 14 346 329 321 318 319 318 316 312 305 300 298 297 297 295 293 290 289 287 288 287 289 286 282 280
181 175 160 151 145 140 138 138 139 143 147 148 145 138 130 119 92 42 358 332 320 317 317 316 315 313 308 302 297 294 294 294 293 291 290 288 285 284 283 284 283 281 281
163 161 155 146 142 141 142 142 143 145 148 149 148 146 144 142 105 338 324 318 315 315 316 316 314 310 302 295 290 288 288 289 290 289 288 285 284 282 280 281 283 281 280
156 158 157 151 148 148 147 147 150 154 156 159 161 163 166 187 255 291 304 308 309 312 317 318 318 314 302 291 285 282 283 286 287 286 286 286 285 282 279 281 283 281 279
161 162 164 161 160 160 159 159 162 165 168 173 176 184 200 221 243 263 286 301 307 311 317 321 324 319 310 295 282 276 277 280 284 285 287 286 285 283 281 281 282 281 279
172 175 174 174 173 173 174 175 176 176 179 184 189 197 209 222 240 260 279 294 304 308 314 321 324 322 315 304 285 274 274 276 278 280 284 285 285 284 283 281 280 280 279
194 197 194 190 189 186 185 185 187 189 189 194 196 200 210 224 242 262 276 288 300 309 312 317 320 320 318 311 296 282 275 274 275 277 279 281 282 283 282 282 281 280 279
208 212 211 204 203 199 194 194 197 199 199 203 205 209 216 228 242 257 274 286 296 308 311 312 318 319 317 310 298 289 284 280 279 279 279 280 281 282 282 282 281 280 279
218 221 220 212 213 211 207 205 204 203 204 207 212 220 228 238 248 259 271 283 292 304 310 309 313 317 318 314 305 296 289 287 283 282 282 283 284 284 283 282 282 281 281
221 226 230 223 223 222 221 220 219 216 216 219 224 231 240 249 258 267 275 283 290 298 304 304 306 311 315 313 308 304 295 290 286 284 283 285 285 285 284 284 284 283 282
225 230 235 232 233 233 232 230 230 232 235 239 245 252 257 262 267 272 280 285 289 294 297 299 300 302 306 307 304 301 301 294 289 287 286 287 286 286 286 286 285 285 285
228 233 237 234 236 239 240 239 238 242 248 253 258 264 269 272 275 278 281 284 287 290 292 293 294 296 297 298 299 296 296 297 294 292 291 290 289 289 288 288 288 287 287
229 233 235 239 241 245 247 249 252 253 257 262 264 270 274 274 277 281 283 285 284 285 285 286 290 292 291 290 290 291 291 292 294 294 291 290 290 289 289 290 289 289 288
229 233 239 241 247 252 252 256 262 267 265 267 267 269 275 277 279 282 283 282 281 281 281 281 284 285 285 286 286 285 285 286 289 290 290 290 290 291 293 292 292 291 291
237 243 244 246 250 255 259 261 264 269 269 271 270 272 277 279 281 283 285 281 278 278 279 281 283 281 281 282 283 283 281 282 284 285 286 288 290 291 291 292 292 292 292
235 239 241 250 256 257 262 266 277 275 274 277 278 276 278 281 284 285 285 283 279 280 281 281 282 281 281 280 280 280 280 280 282 283 285 287 288 289 290 291 291 292 292
239 242 248 254 260 264 268 271 275 274 274 277 278 280 284 284 282 284 284 285 282 282 281 282 281 284 284 281 280 280 280 281 282 283 285 286 288 289 290 291 291 292 292
241 246 251 256 261 264 269 272 274 280 279 279 281 284 286 287 287 288 286 285 282 283 283 283 281 283 283 282 281 281 281 282 283 284 286 287 288 289 290 291 292 292 292
244 248 255 258 264 268 271 274 277 278 281 282 283 286 289 290 290 288 289 285 284 284 284 280 281 282 283 282 282 282 283 284 286 287 288 288 289 290 291 292 293 293 292
Height
5893 5894 5894 5895 5895 5896 5896 5896 5897 5899 5900 5901 5902 5903 5904 5905 5905 5906 5907 5907 5908 5908 5908 5908 5909 5909 5909 5909 5908 5908 5907 5907 5908 5908 5908 5908 5908 5908 5908 5908 5908 5908 5908
5892 5892 5893 5894 5894 5895 5895 5895 5896 5897 5899 5900 5901 5903 5903 5904 5905 5905 5906 5907 5907 5907 5907 5907 5907 5907 5907 5907 5907 5906 5906 5906 5906 5906 5906 5907 5907 5906 5906 5906 5907 5907 5907
5891 5891 5891 5892 5893 5893 5894 5894 5895 5896 5897 5899 5900 5901 5902 5903 5904 5905 5905 5905 5905 5905 5905 5906 5905 5905 5905 5905 5905 5905 5905 5905 5905 5905 5905 5905 5905 5905 5905 5905 5905 5905 5905
5889 5889 5890 5891 5891 5892 5892 5893 5894 5895 5896 5897 5899 5900 5901 5902 5903 5903 5904 5904 5904 5903 5904 5904 5904 5904 5904 5903 5903 5903 5904 5904 5904 5904 5903 5903 5903 5903 5903 5903 5902 5902 5903
5888 5888 5889 5890 5890 5891 5891 5892 5893 5894 5895 5896 5898 5899 5900 5900 5901 5902 5902 5902 5902 5901 5901 5902 5902 5902 5902 5902 5902 5902 5902 5902 5902 5902 5901 5901 5901 5901 5900 5900 5900 5900 5900
5887 5888 5888 5889 5889 5890 5891 5892 5893 5894 5895 5896 5897 5898 5898 5899 5900 5900 5900 5900 5900 5899 5899 5900 5900 5900 5900 5900 5900 5900 5899 5899 5899 5899 5899 5899 5898 5898 5897 5897 5897 5897 5897
5887 5887 5887 5888 5888 5889 5890 5891 5892 5893 5894 5895 5896 5897 5898 5898 5899 5899 5899 5899 5898 5898 5897 5897 5898 5898 5898 5898 5897 5897 5897 5896 5896 5896 5896 5896 5895 5895 5894 5894 5894 5894 5894
5886 5887 5887 5887 5888 5889 5890 5891 5892 5893 5894 5895 5896 5897 5897 5898 5898 5898 5898 5897 5897 5896 5896 5896 5896 5896 5896 5895 5894 5894 5893 5893 5893 5893 5893 5892 5892 5892 5891 5891 5891 5891 5891
5885 5886 5887 5887 5888 5889 5890 5891 5892 5893 5894 5895 5895 5896 5897 5897 5897 5897 5897 5896 5895 5895 5894 5894 5894 5894 5893 5892 5891 5890 5890 5889 5889 5890 5889 5889 5889 5888 5888 5888 5888 5888 5888
5885 5886 5887 5887 5888 5889 5890 5891 5892 5893 5894 5895 5895 5896 5896 5896 5896 5896 5896 5895 5894 5893 5892 5892 5892 5891 5890 5890 5888 5887 5887 5886 5886 5886 5886 5886 5886 5885 5885 5885 5885 5884 5884
5885 5886 5887 5887 5888 5889 5890 5891 5892 5893 5894 5894 5895 5895 5895 5895 5895 5895 5895 5894 5893 5892 5891 5890 5889 5888 5887 5886 5885 5884 5884 5883 5883 5883 5883 5883 5883 5882 5882 5882 5882 5882 5881
5885 5886 5887 5888 5889 5889 5890 5891 5892 5892 5893 5894 5894 5894 5894 5894 5894 5894 5893 5893 5892 5890 5889 5888 5887 5886 5884 5883 5882 5881 5881 5880 5880 5879 5879 5880 5880 5879 5879 5879 5879 5879 5878
5885 5886 5887 5888 5889 5889 5890 5891 5892 5892 5892 5893 5893 5893 5894 5893 5893 5893 5892 5891 5890 5889 5887 5886 5884 5883 5881 5880 5879 5879 5878 5877 5876 5876 5876 5876 5876 5876 5876 5876 5875 5875 5875
5885 5886 5887 5888 5889 5889 5890 5890 5891 5891 5891 5892 5892 5892 5892 5892 5892 5892 5891 5890 5888 5887 5885 5884 5882 5880 5879 5877 5876 5876 5875 5874 5873 5873 5872 5872 5872 5872 5872 5872 5872 5872 5871
5884 5886 5886 5887 5888 5889 5889 5890 5890 5890 5891 5891 5891 5891 5891 5891 5890 5890 5889 5888 5886 5885 5883 5882 5880 5878 5876 5875 5873 5873 5872 5871 5870 5870 5869 5869 5869 5868 5868 5868 5867 5867 5866
5883 5884 5885 5886 5887 5887 5888 5888 5889 5889 5889 5889 5890 5890 5890 5889 5888 5888 5887 5886 5884 5883 5882 5880 5878 5876 5874 5872 5871 5870 5869 5868 5867 5867 5866 5865 5865 5864 5863 5863 5862 5861 5860
5881 5882 5884 5885 5885 5886 5886 5887 5887 5887 5887 5887 5887 5887 5887 5887 5886 5886 5885 5883 5882 5880 5879 5877 5876 5874 5872 5870 5868 5867 5866 5865 5864 5863 5862 5861 5860 5859 5858 5857 5856 5855 5854
5878 5880 5881 5883 5883 5884 5884 5885 5885 5885 5885 5885 5885 5885 5884 5884 5883 5882 5881 5880 5879 5877 5876 5875 5873 5871 5869 5868 5866 5865 5863 5862 5861 5860 5858 5857 5856 5855 5853 5852 5851 5850 5848
5875 5877 5878 5879 5880 5881 5881 5882 5882 5882 5882 5882 5881 5881 5880 5879 5879 5878 5877 5876 5875 5873 5872 5871 5870 5868 5866 5865 5863 5862 5861 5859 5857 5856 5855 5854 5852 5850 5849 5847 5845 5844 5842
5871 5872 5874 5875 5876 5877 5878 5879 5879 5879 5877 5877 5877 5876 5875 5874 5873 5873 5872 5871 5870 5869 5867 5866 5865 5864 5862 5861 5859 5858 5857 5855 5853 5852 5850 5849 5847 5845 5843 5841 5840 5838 5836
5866 5868 5870 5872 5873 5873 5874 5875 5874 5873 5872 5871 5871 5870 5870 5868 5867 5866 5866 5864 5863 5862 5861 5861 5860 5858 5857 5856 5855 5853 5852 5850 5849 5847 5845 5843 5842 5840 5838 5835 5833 5831 5829
5862 5864 5866 5868 5869 5869 5869 5869 5869 5867 5865 5865 5865 5865 5864 5862 5861 5860 5859 5857 5856 5856 5855 5854 5853 5852 5851 5850 5849 5847 5846 5845 5843 5841 5839 5837 5835 5833 5831 5828 5826 5823 5820
5858 5860 5862 5863 5863 5864 5864 5864 5862 5861 5860 5860 5859 5859 5858 5856 5855 5853 5852 5850 5849 5849 5848 5848 5847 5845 5845 5844 5842 5841 5839 5838 5836 5834 5832 5830 5827 5825 5822 5820 5817 5814 5811
5853 5855 5856 5857 5858 5858 5858 5858 5857 5856 5855 5854 5852 5851 5850 5849 5847 5846 5845 5843 5843 5842 5841 5841 5840 5839 5838 5836 5835 5833 5832 5830 5828 5826 5824 5821 5819 5816 5813 5810 5807 5804 5800
5848 5850 5851 5851 5852 5852 5852 5851 5850 5849 5848 5847 5845 5844 5843 5842 5840 5839 5838 5837 5836 5835 5834 5833 5832 5831 5830 5829 5827 5825 5823 5821 5819 5817 5815 5812 5809 5806 5803 5800 5796 5792 5788
5842 5843 5844 5845 5845 5845 5844 5843 5842 5841 5840 5838 5836 5834 5834 5833 5832 5832 5830 5829 5828 5827 5827 5826 5824 5823 5822 5820 5819 5817 5815 5813 5810 5807 5805 5801 5798 5795 5792 5788 5784 5779 5775